COSMOS 894 DEB, 45506

Orbit data source: Space-Track

COSMOS 894 DEB, 45506 is space debris in LEO originally from a launch on Mon, 21 Feb 1977 UTC launched from the Plesetsk Missile And Space Complex (PKMTR). Debris objects in space refer to the collection of defunct objects orbiting the Earth. Examples of debris include non-operational satellites, rocket bodies, and fragments generated from explosions, collisions, or faulty payload assembly.

Loading next visibility...
Identifier
45506, 1977-013C
Orbit
LEO
Country
Flag of CISCIS
Related business
Manufacturer
Unknown
Mission
Spacecraft
Bus & Motor
Unknown
Mass
Unknown
Launch date (UTC)
1977-02-21 (49 years ago)
Launch vehicle
Unknown
Launch site
Plesetsk Missile And Space Complex (PKMTR)
Object type
Payload
Rocket body
Debris
Shape & HBR
Unknown
Radar Cross Section
Small (<0.1 m²)

Expand to show TLE details & history
Last TLE update: 1 day ago

TLE from 1 day ago
0 COSMOS 894 DEB
1 45506U 77013C   25260.05445893  .00000660  00000-0  62977-3 0  9997
2 45506  82.9396 288.0812 0027683 206.5831 153.3910 13.79045396575353
Epoch: 2025-09-17T01:18Z
TLE epoch observation values (Epoch: 2025-09-17T01:18:25.251Z)
Latitude
0.00001°
Longitude
-87.75993°
Altitude
988.375 km
Speed
7.348 km/s
True Right ascension
19h 12m 19s
True Declination
0° 00' 00"
Sunlit
Object was in daylight at epoch
Visualization orbit readout
Latitude
Unknown
Longitude
Unknown
Altitude
Unknown
Speed
Unknown
Apparent Right ascension
Unknown
Apparent Declination
Unknown
Sunlit
N/A
Visualization observer readout
Local Sidereal Time
01:22:15
Azimuth
Unknown
Elevation
Unknown
Doppler factor
Unknown
Orbital elements
Apogee altitude
984.744 km
Perigee altitude
944.091 km
Semi-major axis
7,342.555 km
Eccentricity
0.00277
Inclination
82.9396°
RAAN
288.0812°
Arg. of periapsis
206.5831°
True anomaly
153.53265°
Mean anomaly
153.391°
Eccentric anomaly
153.46187°
Mean motion
3.44963 °/min
Orbital period
104.36 mins
BSTAR
0.00062977
Loading maneuver chart data...
Computing Atmospheric mass density...
Loading historical data...
Loading historical data...
Loading historical data...
Loading historical data...
Loading historical data...
Loading historical data...
Loading historical data...
Other satellites on launch #13 in the year 1977 (1977-02-21 UTC)

Documentation

Showing up to 5 results
|